Location: Stanford
(52.2833°N, 2.4333°W)
Time: 23:06:45
(UTC+00:00)

Cosmos 1315 Rocket - Pass Details

Date: 22 January 2021
Orbit: 529 x 567 km, 81.2° (Epoch: 01 March)

Event Time Altitude Azimuth Distance (km) Brightness Sun altitude
Rises 17:38:55 0° 343° (NNW) 2,704 6.3 -9.1°
Reaches altitude 10° 17:41:06 10° 339° (NNW) 1,813 5.5 -9.4°
Maximum altitude 17:44:59 54° 262° (W) 664 3.7 -9.9°
Drops below altitude 10° 17:48:54 10° 185° (S) 1,819 5.8 -10.5°
Sets 17:51:06 0° 181° (S) 2,714 6.6 -10.8°
